[ 高 清 坊 ]

[ 916 主题 / 1817274 回复 ]

版块介绍: 论坛制作高清同志影视

版主: 晃司, blv

 类型 作者/时间 回复 查看 最后发表
  [只是查理].Just.Charlie.2017.720p.WEB-DL.x264.AC3-QaFoNE  ...23456..26 blv 2018-4-2 636/14461 wosiguwoxiao 2019-2-3 21:34
  [海上良宵].Blooming.Night.2016.Short.1080p.x264.AAC-QaFoNE  ...23456..21 blv 2018-3-28 509/12605 Yangw 昨天 20:47
  [男人,吾子].A.Man.My.Son.2017.Short.720p.x264.AAC-QaFoNE  ...23456..23 blv 2018-3-23 570/13678 cxx446763 2019-1-29 22:42
  [爱的路].Paths.2017.DVDRip.x264.AAC-QaFoNE  ...23456..68 blv 2018-3-19 1686/21341 plzcheckin 前天 21:21
  [洞].Hole.2014.Short.1080p.x264.AAC-QaFoNE  ...23456..27 blv 2018-3-13 667/11927 aftersummer 前天 19:52
  [梦呓雨林].I.Dream.in.Another.Language.2017.720p.WEBRip.x264.AAC-QaFoNE  ...23456..52 blv 2018-3-8 1275/16979 mingyanbin 3 天前 18:20
  [糖爹先生].Mr.Sugar.Daddy.2016.Short.1080p.x264.AAC-QaFoNE  ...23456..27 blv 2018-3-2 668/13550 lloha 2019-1-20 08:24
  [酷儿们].Queers.2017.s01.720p.WEBRip.x264.AAC-QaFoNE  ...23456..15 blv 2018-2-26 362/8459 ldong1989 2019-1-16 22:20
  [爱砸了].Screwed.2017.720p.WEBRip.x264.AAC-QaFoNE  ...23456..73 blv 2018-2-22 1807/22635 popbobo1986 3 天前 21:48
  [人生密密缝].Close.Knit.2017.720p.BDRip.x264.AC3-QaFoNE  ...23456..26 blv 2018-2-10 643/14223 plzcheckin 2019-2-10 19:58
  [佩德罗].Pedro.2016.Short.1080p.x264.AAC-QaFoNE  ...23456..69 blv 2018-2-6 1717/19277 plzcheckin 前天 21:22
  [男孩们].Boys.2016.Short.1080p.x264.AAC-QaFoNE  ...23456..21 blv 2018-1-31 517/12504 泼泼124 2019-2-7 16:06
  [天使的身体].Body.of.Angels.2016.Short.x264.AAC-QaFoNE  ...23456..65 blv 2018-1-27 1603/20150 plzcheckin 前天 21:23
  [梦之船].Dream.Boat.2017.720p.WEBRip.x264.AC3-QaFoNE  ...23456..73 blv 2018-1-24 1800/21319 plzcheckin 前天 21:24
  [裸男孩].A.Naked.Boy.2016.Short.1080p.x264.AAC-QaFoNE  ...23456..46 blv 2018-1-20 1132/18071 plzcheckin 前天 21:24
  [上帝之国].Gods.Own.Country.2017.1080p.WEB-DL.x264.AC3-QaFoNE  ...23456..140 blv 2018-1-16 3475/38280 马克克- 昨天 01:08
  [阿波罗].Apollon.2016.Short.x264.AAC-QaFoNE  ...23456..44 blv 2018-1-13 1087/15206 wswf 3 天前 08:10
  [伤口].The.Wound.2017.720p.WEB-DL.x264.AC3-QaFoNE  ...23456..46 blv 2018-1-8 1125/18585 zhangtomn 4 天前 20:59
  [深郁之蓝].Ultra.Bleu.2016.Short.720p.x264.AAC-QaFoNE  ...23456..32 blv 2018-1-5 797/15059 nichkhun327 7 天前 15:03
  [每分钟120击].120.Beats.Per.Minute.BPM.2017.720p.WEBRip.x264.AAC-QaFoNE  ...23456..97 blv 2018-1-1 2403/28623 伦敦保卫战 昨天 02:35
  [嫉妒做客].Jealousy.Is.My.Guest.2016.Short.1080p.x264.AAC-QaFoNE  ...23456..41 blv 2017-12-28 1021/17034 929232482 2019-2-7 17:01
  [请以你的名字呼唤我].Call.Me.By.Your.Name.2017.DVDScr.Upscaled.x264.AAC-QaFoNE 评价指数 19  ...23456..123 blv 2017-12-23 3062/32010 nini小威 昨天 11:40
  [疾走马丁].Speed.Walking.2014.1080p.WEBRip.x265.AC3-QaFoNE  ...23456..23 blv 2017-12-22 562/13812 wo11022 2019-2-12 14:04
  [帅气的恶魔].Handsome.Devil.2016.1080p.WEB-DL.x265.AC3-QaFoNE  ...23456..63 blv 2017-12-15 1552/21556 plzcheckin 前天 21:27
  [觉醒彩虹].Woke.2017.S01.1080p.WEBRip.x264.AAC-QaFoNE  ...23456..42 blv 2017-12-8 1038/17284 迪迦奥特曼 4 天前 20:57
  • QAF三国群英传信息联盟发布平台
  •